Time,TemperatureF,DewpointF,PressureIn,WindDirection,WindDirectionDegrees,WindSpeedMPH,WindSpeedGustMPH,Humidity,HourlyPrecipIn,Conditions,Clouds,dailyrainin,SolarRadiationWatts/m^2,SoftwareType,DateUTC
2013-04-20 00:03:00,38.6,28.2,30.11,West,279,3.0,4.0,66,0.00,,,0.00,0,WeatherCatV1.15B25,2013-04-20 07:03:00,
2013-04-20 00:08:00,38.8,28.4,30.11,West,274,2.0,4.0,66,0.00,,,0.00,0,WeatherCatV1.15B25,2013-04-20 07:08:00,
2013-04-20 00:13:00,38.8,28.8,30.11,WNW,283,3.0,3.0,67,0.00,,,0.00,0,WeatherCatV1.15B25,2013-04-20 07:13:00,
2013-04-20 00:18:00,38.9,28.5,30.08,WNW,283,2.0,3.0,66,0.00,,,0.00,0,WeatherCatV1.15B25,2013-04-20 07:18:00,
2013-04-20 00:23:00,38.9,28.5,30.08,WNW,283,0.0,4.0,66,0.00,,,0.00,0,WeatherCatV1.15B25,2013-04-20 07:23:00,
2013-04-20 00:28:00,38.9,28.5,30.08,WNW,283,0.0,3.0,66,0.00,,,0.00,0,WeatherCatV1.15B25,2013-04-20 07:28:00,
2013-04-20 00:33:00,38.8,28.4,30.08,WNW,283,0.0,0.0,66,0.00,,,0.00,0,WeatherCatV1.15B25,2013-04-20 07:33:00,
2013-04-20 00:38:00,38.5,28.1,30.08,West,264,3.0,3.0,66,0.00,,,0.00,0,WeatherCatV1.15B25,2013-04-20 07:38:00,
2013-04-20 00:43:00,38.2,27.9,30.08,SW,234,2.0,4.0,66,0.00,,,0.00,0,WeatherCatV1.15B25,2013-04-20 07:43:00,
2013-04-20 00:48:00,37.9,27.9,30.09,SW,234,4.0,4.0,67,0.00,,,0.00,0,WeatherCatV1.15B25,2013-04-20 07:48:00,
2013-04-20 00:53:00,37.8,28.2,30.09,SW,218,3.0,4.0,68,0.00,,,0.00,0,WeatherCatV1.15B25,2013-04-20 07:53:00,
2013-04-20 00:58:00,37.6,28.0,30.09,SW,218,2.0,4.0,68,0.00,,,0.00,0,WeatherCatV1.15B25,2013-04-20 07:58:00,
2013-04-20 01:03:00,37.6,28.0,30.09,SW,218,0.0,0.0,68,0.00,,,0.00,0,WeatherCatV1.15B25,2013-04-20 08:03:00,
2013-04-20 01:08:00,37.6,26.9,30.09,ENE,74,1.0,6.0,65,0.00,,,0.00,0,WeatherCatV1.15B25,2013-04-20 08:08:00,
2013-04-20 01:13:00,38.0,27.3,30.09,NE,37,0.0,4.0,65,0.00,,,0.00,0,WeatherCatV1.15B25,2013-04-20 08:13:00,
2013-04-20 01:18:00,38.0,27.3,30.08,SE,133,0.0,5.0,65,0.00,,,0.00,0,WeatherCatV1.15B25,2013-04-20 08:18:00,
2013-04-20 01:23:00,38.0,27.3,30.08,SE,133,0.0,0.0,65,0.00,,,0.00,0,WeatherCatV1.15B25,2013-04-20 08:23:00,
2013-04-20 01:28:00,37.9,27.2,30.08,SE,133,0.0,0.0,65,0.00,,,0.00,0,WeatherCatV1.15B25,2013-04-20 08:28:00,
2013-04-20 01:33:00,37.8,27.5,30.08,East,91,4.0,6.0,66,0.00,,,0.00,0,WeatherCatV1.15B25,2013-04-20 08:33:00,
2013-04-20 01:38:00,37.6,27.3,30.08,SE,128,1.0,2.0,66,0.00,,,0.00,0,WeatherCatV1.15B25,2013-04-20 08:38:00,
2013-04-20 01:43:00,37.3,27.4,30.08,SE,143,4.0,7.0,67,0.00,,,0.00,0,WeatherCatV1.15B25,2013-04-20 08:43:00,
2013-04-20 01:48:00,37.3,27.4,30.10,ESE,114,4.0,7.0,67,0.00,,,0.00,0,WeatherCatV1.15B25,2013-04-20 08:48:00,
2013-04-20 01:53:00,37.0,26.7,30.10,ENE,66,0.0,8.0,66,0.00,,,0.00,0,WeatherCatV1.15B25,2013-04-20 08:53:00,
2013-04-20 01:58:00,36.9,26.6,30.10,SE,132,5.0,5.0,66,0.00,,,0.00,0,WeatherCatV1.15B25,2013-04-20 08:58:00,
2013-04-20 02:03:00,36.9,26.6,30.09,SSE,150,4.0,6.0,66,0.00,,,0.00,0,WeatherCatV1.15B25,2013-04-20 09:03:00,
2013-04-20 02:08:00,36.9,26.6,30.09,SE,136,1.0,5.0,66,0.00,,,0.00,0,WeatherCatV1.15B25,2013-04-20 09:08:00,
2013-04-20 02:13:00,36.8,26.5,30.09,SE,145,4.0,7.0,66,0.00,,,0.00,0,WeatherCatV1.15B25,2013-04-20 09:13:00,
2013-04-20 02:18:00,36.6,26.0,30.09,ESE,119,4.0,7.0,65,0.00,,,0.00,0,WeatherCatV1.15B25,2013-04-20 09:18:00,
2013-04-20 02:23:00,36.8,26.2,30.09,SE,126,4.0,5.0,65,0.00,,,0.00,0,WeatherCatV1.15B25,2013-04-20 09:23:00,
2013-04-20 02:28:00,36.8,26.2,30.09,SSE,148,5.0,11.0,65,0.00,,,0.00,0,WeatherCatV1.15B25,2013-04-20 09:28:00,
2013-04-20 02:33:00,36.6,26.0,30.09,SE,146,0.0,5.0,65,0.00,,,0.00,0,WeatherCatV1.15B25,2013-04-20 09:33:00,
2013-04-20 02:38:00,36.3,25.7,30.09,SE,145,4.0,5.0,65,0.00,,,0.00,0,WeatherCatV1.15B25,2013-04-20 09:38:00,
2013-04-20 02:43:00,36.2,25.6,30.09,SE,137,2.0,7.0,65,0.00,,,0.00,0,WeatherCatV1.15B25,2013-04-20 09:43:00,
2013-04-20 02:48:00,36.0,25.4,30.09,SSE,149,0.0,7.0,65,0.00,,,0.00,0,WeatherCatV1.15B25,2013-04-20 09:48:00,
2013-04-20 02:53:00,36.0,25.4,30.09,SSE,149,0.0,0.0,65,0.00,,,0.00,0,WeatherCatV1.15B25,2013-04-20 09:53:00,
2013-04-20 02:58:00,36.0,25.8,30.09,SE,146,4.0,4.0,66,0.00,,,0.00,0,WeatherCatV1.15B25,2013-04-20 09:58:00,
2013-04-20 03:03:00,36.0,25.4,30.09,SE,146,6.0,6.0,65,0.00,,,0.00,0,WeatherCatV1.15B25,2013-04-20 10:03:00,
2013-04-20 03:08:00,36.2,25.6,30.09,SE,144,2.0,5.0,65,0.00,,,0.00,0,WeatherCatV1.15B25,2013-04-20 10:08:00,
2013-04-20 03:13:00,36.0,25.4,30.09,SE,127,0.0,0.0,65,0.00,,,0.00,0,WeatherCatV1.15B25,2013-04-20 10:13:00,
2013-04-20 03:18:00,36.0,25.4,30.08,SE,127,0.0,0.0,65,0.00,,,0.00,0,WeatherCatV1.15B25,2013-04-20 10:18:00,
2013-04-20 03:23:00,35.9,25.7,30.08,SE,126,3.0,4.0,66,0.00,,,0.00,0,WeatherCatV1.15B25,2013-04-20 10:23:00,
2013-04-20 03:28:00,35.8,25.2,30.08,SE,141,7.0,11.0,65,0.00,,,0.00,0,WeatherCatV1.15B25,2013-04-20 10:28:00,
2013-04-20 03:33:00,35.6,25.4,30.08,SE,140,8.0,8.0,66,0.00,,,0.00,0,WeatherCatV1.15B25,2013-04-20 10:33:00,
2013-04-20 03:38:00,35.5,25.3,30.08,SE,143,4.0,5.0,66,0.00,,,0.00,0,WeatherCatV1.15B25,2013-04-20 10:38:00,
2013-04-20 03:43:00,35.3,25.1,30.08,SE,144,7.0,9.0,66,0.00,,,0.00,0,WeatherCatV1.15B25,2013-04-20 10:43:00,
2013-04-20 03:48:00,35.2,25.4,30.08,SE,136,3.0,9.0,67,0.00,,,0.00,0,WeatherCatV1.15B25,2013-04-20 10:48:00,
2013-04-20 03:53:00,35.0,24.8,30.08,SSE,153,1.0,11.0,66,0.00,,,0.00,0,WeatherCatV1.15B25,2013-04-20 10:53:00,
2013-04-20 03:58:00,35.0,24.8,30.08,SE,146,4.0,4.0,66,0.00,,,0.00,0,WeatherCatV1.15B25,2013-04-20 10:58:00,
2013-04-20 04:03:00,34.9,24.7,30.07,ESE,114,3.0,10.0,66,0.00,,,0.00,0,WeatherCatV1.15B25,2013-04-20 11:03:00,
2013-04-20 04:08:00,34.9,24.7,30.07,SE,137,3.0,5.0,66,0.00,,,0.00,0,WeatherCatV1.15B25,2013-04-20 11:08:00,
2013-04-20 04:13:00,34.9,24.7,30.07,SE,135,2.0,3.0,66,0.00,,,0.00,0,WeatherCatV1.15B25,2013-04-20 11:13:00,
2013-04-20 04:18:00,34.7,24.9,30.08,SE,132,4.0,5.0,67,0.00,,,0.00,0,WeatherCatV1.15B25,2013-04-20 11:18:00,
2013-04-20 04:23:00,34.7,24.5,30.08,SE,134,1.0,4.0,66,0.00,,,0.00,0,WeatherCatV1.15B25,2013-04-20 11:23:00,
2013-04-20 04:28:00,34.7,24.5,30.08,SE,138,4.0,5.0,66,0.00,,,0.00,0,WeatherCatV1.15B25,2013-04-20 11:28:00,
2013-04-20 04:33:00,34.7,24.5,30.08,SE,140,4.0,6.0,66,0.00,,,0.00,0,WeatherCatV1.15B25,2013-04-20 11:33:00,
2013-04-20 04:38:00,34.7,24.5,30.08,SE,124,0.0,3.0,66,0.00,,,0.00,0,WeatherCatV1.15B25,2013-04-20 11:38:00,
2013-04-20 04:43:00,34.7,24.5,30.08,SE,134,4.0,6.0,66,0.00,,,0.00,0,WeatherCatV1.15B25,2013-04-20 11:43:00,
2013-04-20 04:48:00,34.7,24.5,30.08,SE,140,5.0,6.0,66,0.00,,,0.00,0,WeatherCatV1.15B25,2013-04-20 11:48:00,
2013-04-20 04:53:00,34.6,24.4,30.08,ESE,112,0.0,4.0,66,0.00,,,0.00,0,WeatherCatV1.15B25,2013-04-20 11:53:00,
2013-04-20 04:58:00,34.3,24.5,30.08,ESE,110,0.0,2.0,67,0.00,,,0.00,0,WeatherCatV1.15B25,2013-04-20 11:58:00,
2013-04-20 05:03:00,34.0,24.2,30.10,ESE,109,3.0,3.0,67,0.00,,,0.00,0,WeatherCatV1.15B25,2013-04-20 12:03:00,
2013-04-20 05:08:00,33.5,24.1,30.10,ESE,108,0.0,3.0,68,0.00,,,0.00,0,WeatherCatV1.15B25,2013-04-20 12:08:00,
2013-04-20 05:13:00,33.5,24.4,30.10,ESE,107,0.0,0.0,69,0.00,,,0.00,0,WeatherCatV1.15B25,2013-04-20 12:13:00,
2013-04-20 05:18:00,33.8,24.7,30.12,ESE,107,4.0,4.0,69,0.00,,,0.00,0,WeatherCatV1.15B25,2013-04-20 12:18:00,
2013-04-20 05:23:00,34.1,24.7,30.12,ESE,108,2.0,4.0,68,0.00,,,0.00,0,WeatherCatV1.15B25,2013-04-20 12:23:00,
2013-04-20 05:28:00,34.0,24.6,30.12,ESE,110,5.0,5.0,68,0.00,,,0.00,0,WeatherCatV1.15B25,2013-04-20 12:28:00,
2013-04-20 05:33:00,34.0,24.6,30.11,ESE,108,0.0,5.0,68,0.00,,,0.00,0,WeatherCatV1.15B25,2013-04-20 12:33:00,
2013-04-20 05:38:00,33.8,24.4,30.11,ESE,103,3.0,5.0,68,0.00,,,0.00,0,WeatherCatV1.15B25,2013-04-20 12:38:00,
2013-04-20 05:43:00,33.5,24.4,30.11,ESE,108,1.0,4.0,69,0.00,,,0.00,0,WeatherCatV1.15B25,2013-04-20 12:43:00,
2013-04-20 05:48:00,33.4,24.3,30.11,ESE,112,2.0,3.0,69,0.00,,,0.00,0,WeatherCatV1.15B25,2013-04-20 12:48:00,
2013-04-20 05:53:00,33.2,24.1,30.11,ESE,111,0.0,3.0,69,0.00,,,0.00,0,WeatherCatV1.15B25,2013-04-20 12:53:00,
2013-04-20 05:58:00,32.9,24.2,30.11,ESE,110,0.0,0.0,70,0.00,,,0.00,0,WeatherCatV1.15B25,2013-04-20 12:58:00,
2013-04-20 06:03:00,33.1,24.4,30.11,ESE,110,3.0,4.0,70,0.00,,,0.00,0,WeatherCatV1.15B25,2013-04-20 13:03:00,
2013-04-20 06:08:00,33.2,24.1,30.11,ESE,111,2.0,3.0,69,0.00,,,0.00,0,WeatherCatV1.15B25,2013-04-20 13:08:00,
2013-04-20 06:13:00,33.4,24.3,30.11,ESE,106,2.0,3.0,69,0.00,,,0.00,0,WeatherCatV1.15B25,2013-04-20 13:13:00,
2013-04-20 06:18:00,33.1,24.1,30.14,ESE,107,0.0,4.0,69,0.00,,,0.00,5,WeatherCatV1.15B25,2013-04-20 13:18:00,
2013-04-20 06:23:00,32.8,24.1,30.14,East,93,2.0,5.0,70,0.00,,,0.00,9,WeatherCatV1.15B25,2013-04-20 13:23:00,
2013-04-20 06:28:00,32.5,24.2,30.14,East,89,0.0,5.0,71,0.00,,,0.00,14,WeatherCatV1.15B25,2013-04-20 13:28:00,
2013-04-20 06:33:00,32.4,24.1,30.14,East,97,1.0,6.0,71,0.00,,,0.00,18,WeatherCatV1.15B25,2013-04-20 13:33:00,
2013-04-20 06:38:00,32.4,24.4,30.14,East,95,2.0,4.0,72,0.00,,,0.00,23,WeatherCatV1.15B25,2013-04-20 13:38:00,
2013-04-20 06:43:00,32.7,24.4,30.14,ESE,111,3.0,3.0,71,0.00,,,0.00,28,WeatherCatV1.15B25,2013-04-20 13:43:00,
2013-04-20 06:48:00,33.2,24.5,30.15,ESE,109,1.0,4.0,70,0.00,,,0.00,35,WeatherCatV1.15B25,2013-04-20 13:48:00,
2013-04-20 06:53:00,33.8,24.7,30.15,East,101,4.0,5.0,69,0.00,,,0.00,44,WeatherCatV1.15B25,2013-04-20 13:53:00,
2013-04-20 06:58:00,34.3,24.9,30.15,ESE,119,4.0,6.0,68,0.00,,,0.00,56,WeatherCatV1.15B25,2013-04-20 13:58:00,
2013-04-20 07:03:00,34.4,24.6,30.12,ESE,106,3.0,5.0,67,0.00,,,0.00,69,WeatherCatV1.15B25,2013-04-20 14:03:00,
2013-04-20 07:08:00,34.7,24.9,30.12,ESE,104,2.0,5.0,67,0.00,,,0.00,83,WeatherCatV1.15B25,2013-04-20 14:08:00,
2013-04-20 07:13:00,34.9,25.1,30.12,ESE,103,3.0,5.0,67,0.00,,,0.00,98,WeatherCatV1.15B25,2013-04-20 14:13:00,
2013-04-20 07:18:00,35.2,25.0,30.17,East,97,2.0,5.0,66,0.00,,,0.00,111,WeatherCatV1.15B25,2013-04-20 14:18:00,
2013-04-20 07:23:00,35.8,25.2,30.17,East,97,1.0,4.0,65,0.00,,,0.00,127,WeatherCatV1.15B25,2013-04-20 14:23:00,
2013-04-20 07:28:00,36.3,25.3,30.17,ESE,116,5.0,5.0,64,0.00,,,0.00,142,WeatherCatV1.15B25,2013-04-20 14:28:00,
2013-04-20 07:33:00,36.8,25.4,30.15,ESE,116,2.0,7.0,63,0.00,,,0.00,158,WeatherCatV1.15B25,2013-04-20 14:33:00,
2013-04-20 07:38:00,37.0,25.2,30.15,ESE,109,3.0,4.0,62,0.00,,,0.00,174,WeatherCatV1.15B25,2013-04-20 14:38:00,
2013-04-20 07:43:00,37.3,25.5,30.15,ESE,114,1.0,6.0,62,0.00,,,0.00,192,WeatherCatV1.15B25,2013-04-20 14:43:00,
2013-04-20 07:48:00,37.8,26.0,30.14,ESE,105,1.0,4.0,62,0.00,,,0.00,207,WeatherCatV1.15B25,2013-04-20 14:48:00,
2013-04-20 07:53:00,38.0,25.8,30.14,SE,135,5.0,12.0,61,0.00,,,0.00,225,WeatherCatV1.15B25,2013-04-20 14:53:00,
2013-04-20 07:58:00,38.2,26.0,30.14,ESE,109,5.0,7.0,61,0.00,,,0.00,239,WeatherCatV1.15B25,2013-04-20 14:58:00,
2013-04-20 08:03:00,38.2,25.6,30.14,ESE,109,5.0,6.0,60,0.00,,,0.00,257,WeatherCatV1.15B25,2013-04-20 15:03:00,
2013-04-20 08:08:00,38.3,25.6,30.14,ESE,121,4.0,7.0,60,0.00,,,0.00,274,WeatherCatV1.15B25,2013-04-20 15:08:00,
2013-04-20 08:13:00,38.3,25.6,30.14,ESE,108,1.0,9.0,60,0.00,,,0.00,292,WeatherCatV1.15B25,2013-04-20 15:13:00,
2013-04-20 08:18:00,38.6,25.9,30.16,ESE,110,3.0,5.0,60,0.00,,,0.00,309,WeatherCatV1.15B25,2013-04-20 15:18:00,
2013-04-20 08:23:00,39.1,26.4,30.16,SE,143,2.0,6.0,60,0.00,,,0.00,329,WeatherCatV1.15B25,2013-04-20 15:23:00,
2013-04-20 08:28:00,39.6,26.1,30.16,SE,130,4.0,5.0,58,0.00,,,0.00,343,WeatherCatV1.15B25,2013-04-20 15:28:00,
2013-04-20 08:33:00,40.3,26.3,30.15,ESE,116,0.0,9.0,57,0.00,,,0.00,362,WeatherCatV1.15B25,2013-04-20 15:33:00,
2013-04-20 08:38:00,40.8,26.8,30.15,ESE,111,5.0,5.0,57,0.00,,,0.00,380,WeatherCatV1.15B25,2013-04-20 15:38:00,
2013-04-20 08:43:00,41.3,26.4,30.15,SE,130,6.0,6.0,55,0.00,,,0.00,397,WeatherCatV1.15B25,2013-04-20 15:43:00,
2013-04-20 08:48:00,41.6,26.6,30.13,ESE,123,5.0,8.0,55,0.00,,,0.00,415,WeatherCatV1.15B25,2013-04-20 15:48:00,
2013-04-20 08:53:00,41.5,26.6,30.13,SE,145,8.0,9.0,55,0.00,,,0.00,432,WeatherCatV1.15B25,2013-04-20 15:53:00,
2013-04-20 08:58:00,41.9,26.5,30.13,ESE,102,3.0,9.0,54,0.00,,,0.00,450,WeatherCatV1.15B25,2013-04-20 15:58:00,
2013-04-20 09:03:00,42.1,26.7,30.14,East,97,0.0,6.0,54,0.00,,,0.00,464,WeatherCatV1.15B25,2013-04-20 16:03:00,
2013-04-20 09:08:00,42.2,26.8,30.14,ESE,112,0.0,4.0,54,0.00,,,0.00,482,WeatherCatV1.15B25,2013-04-20 16:08:00,
2013-04-20 09:13:00,42.2,26.8,30.14,SE,138,3.0,9.0,54,0.00,,,0.00,497,WeatherCatV1.15B25,2013-04-20 16:13:00,
2013-04-20 09:18:00,42.2,27.2,30.15,ESE,105,0.0,7.0,55,0.00,,,0.00,515,WeatherCatV1.15B25,2013-04-20 16:18:00,
2013-04-20 09:23:00,42.8,26.4,30.15,East,85,3.0,7.0,52,0.00,,,0.00,533,WeatherCatV1.15B25,2013-04-20 16:23:00,
2013-04-20 09:28:00,43.1,27.6,30.15,ESE,116,2.0,5.0,54,0.00,,,0.00,550,WeatherCatV1.15B25,2013-04-20 16:28:00,
2013-04-20 09:33:00,43.5,27.1,30.15,ESE,112,4.0,7.0,52,0.00,,,0.00,568,WeatherCatV1.15B25,2013-04-20 16:33:00,
2013-04-20 09:38:00,43.9,27.0,30.15,ESE,120,0.0,7.0,51,0.00,,,0.00,580,WeatherCatV1.15B25,2013-04-20 16:38:00,
2013-04-20 09:43:00,44.2,27.2,30.15,SSE,152,6.0,6.0,51,0.00,,,0.00,596,WeatherCatV1.15B25,2013-04-20 16:43:00,
2013-04-20 09:48:00,44.5,27.5,30.14,ESE,122,5.0,5.0,51,0.00,,,0.00,612,WeatherCatV1.15B25,2013-04-20 16:48:00,
2013-04-20 09:53:00,45.1,27.6,30.14,ESE,116,3.0,7.0,50,0.00,,,0.00,628,WeatherCatV1.15B25,2013-04-20 16:53:00,
2013-04-20 09:58:00,45.5,27.0,30.14,ESE,108,4.0,10.0,48,0.00,,,0.00,642,WeatherCatV1.15B25,2013-04-20 16:58:00,
2013-04-20 10:03:00,45.7,27.1,30.12,ESE,113,6.0,6.0,48,0.00,,,0.00,657,WeatherCatV1.15B25,2013-04-20 17:03:00,
2013-04-20 10:08:00,46.2,27.1,30.12,ESE,104,2.0,2.0,47,0.00,,,0.00,673,WeatherCatV1.15B25,2013-04-20 17:08:00,
2013-04-20 10:13:00,46.8,26.6,30.12,East,94,0.0,7.0,45,0.00,,,0.00,684,WeatherCatV1.15B25,2013-04-20 17:13:00,
2013-04-20 10:18:00,47.4,27.1,30.12,SE,125,5.0,5.0,45,0.00,,,0.00,698,WeatherCatV1.15B25,2013-04-20 17:18:00,
2013-04-20 10:23:00,48.2,27.3,30.12,SSE,147,5.0,7.0,44,0.00,,,0.00,708,WeatherCatV1.15B25,2013-04-20 17:23:00,
2013-04-20 10:28:00,48.6,26.6,30.12,ESE,110,7.0,7.0,42,0.00,,,0.00,719,WeatherCatV1.15B25,2013-04-20 17:28:00,
2013-04-20 10:33:00,48.6,27.1,30.11,ESE,111,1.0,12.0,43,0.00,,,0.00,737,WeatherCatV1.15B25,2013-04-20 17:33:00,
2013-04-20 10:38:00,49.1,27.0,30.11,ESE,117,3.0,5.0,42,0.00,,,0.00,747,WeatherCatV1.15B25,2013-04-20 17:38:00,
2013-04-20 10:43:00,49.2,27.7,30.11,ESE,116,2.0,9.0,43,0.00,,,0.00,761,WeatherCatV1.15B25,2013-04-20 17:43:00,
2013-04-20 10:48:00,49.4,26.7,30.11,SSE,151,6.0,6.0,41,0.00,,,0.00,772,WeatherCatV1.15B25,2013-04-20 17:48:00,
2013-04-20 10:53:00,49.5,26.8,30.11,ESE,119,5.0,8.0,41,0.00,,,0.00,782,WeatherCatV1.15B25,2013-04-20 17:53:00,
2013-04-20 10:59:00,49.8,27.1,30.11,SSE,156,8.0,10.0,41,0.00,,,0.00,793,WeatherCatV1.15B25,2013-04-20 17:59:00,
2013-04-20 11:04:00,49.9,27.1,30.10,ESE,113,3.0,9.0,41,0.00,,,0.00,805,WeatherCatV1.15B25,2013-04-20 18:04:00,
2013-04-20 11:09:00,50.2,26.2,30.10,SE,135,1.0,7.0,39,0.00,,,0.00,817,WeatherCatV1.15B25,2013-04-20 18:09:00,
2013-04-20 11:14:00,50.8,26.7,30.10,SE,125,7.0,9.0,39,0.00,,,0.00,826,WeatherCatV1.15B25,2013-04-20 18:14:00,
2013-04-20 11:19:00,50.4,26.4,30.10,SE,130,6.0,9.0,39,0.00,,,0.00,837,WeatherCatV1.15B25,2013-04-20 18:19:00,
2013-04-20 11:24:00,50.4,25.1,30.10,ESE,106,3.0,6.0,37,0.00,,,0.00,844,WeatherCatV1.15B25,2013-04-20 18:24:00,
2013-04-20 11:29:00,51.1,23.7,30.10,ESE,116,4.0,7.0,34,0.00,,,0.00,854,WeatherCatV1.15B25,2013-04-20 18:29:00,
2013-04-20 11:34:00,52.3,25.5,30.10,SE,137,0.0,8.0,35,0.00,,,0.00,865,WeatherCatV1.15B25,2013-04-20 18:34:00,
2013-04-20 11:39:00,53.2,21.0,30.10,East,101,1.0,3.0,28,0.00,,,0.00,870,WeatherCatV1.15B25,2013-04-20 18:39:00,
2013-04-20 11:44:00,53.3,21.0,30.10,ESE,116,3.0,6.0,28,0.00,,,0.00,879,WeatherCatV1.15B25,2013-04-20 18:44:00,
2013-04-20 11:49:00,53.8,20.6,30.08,East,97,3.0,5.0,27,0.00,,,0.00,886,WeatherCatV1.15B25,2013-04-20 18:49:00,
2013-04-20 11:54:00,53.8,19.7,30.08,East,99,0.0,5.0,26,0.00,,,0.00,895,WeatherCatV1.15B25,2013-04-20 18:54:00,
2013-04-20 11:59:00,54.1,24.1,30.08,SE,140,3.0,7.0,31,0.00,,,0.00,900,WeatherCatV1.15B25,2013-04-20 18:59:00,
2013-04-20 12:04:00,54.1,24.1,30.07,SE,138,2.0,7.0,31,0.00,,,0.00,905,WeatherCatV1.15B25,2013-04-20 19:04:00,
2013-04-20 12:09:00,54.2,21.8,30.07,ESE,112,3.0,8.0,28,0.00,,,0.00,914,WeatherCatV1.15B25,2013-04-20 19:09:00,
2013-04-20 12:14:00,53.9,21.6,30.07,SE,125,4.0,9.0,28,0.00,,,0.00,919,WeatherCatV1.15B25,2013-04-20 19:14:00,
2013-04-20 12:19:00,54.1,22.6,30.07,East,86,0.0,4.0,29,0.00,,,0.00,921,WeatherCatV1.15B25,2013-04-20 19:19:00,
2013-04-20 12:24:00,54.8,20.6,30.07,SE,127,4.0,6.0,26,0.00,,,0.00,925,WeatherCatV1.15B25,2013-04-20 19:24:00,
2013-04-20 12:29:00,55.7,20.4,30.07,ESE,104,4.0,5.0,25,0.00,,,0.00,928,WeatherCatV1.15B25,2013-04-20 19:29:00,
2013-04-20 12:34:00,56.2,21.8,30.06,East,89,4.0,6.0,26,0.00,,,0.00,933,WeatherCatV1.15B25,2013-04-20 19:34:00,
2013-04-20 12:39:00,56.9,21.5,30.06,ENE,76,0.0,4.0,25,0.00,,,0.00,935,WeatherCatV1.15B25,2013-04-20 19:39:00,
2013-04-20 12:44:00,57.2,19.7,30.06,SE,137,2.0,6.0,23,0.00,,,0.00,937,WeatherCatV1.15B25,2013-04-20 19:44:00,
2013-04-20 12:49:00,57.2,21.7,30.05,ESE,106,0.0,9.0,25,0.00,,,0.00,939,WeatherCatV1.15B25,2013-04-20 19:49:00,
2013-04-20 12:54:00,57.0,20.6,30.05,SE,126,0.0,3.0,24,0.00,,,0.00,942,WeatherCatV1.15B25,2013-04-20 19:54:00,
2013-04-20 12:59:00,57.8,22.2,30.05,ESE,105,4.0,7.0,25,0.00,,,0.00,947,WeatherCatV1.15B25,2013-04-20 19:59:00,
2013-04-20 13:04:00,58.0,21.4,30.02,SE,127,3.0,5.0,24,0.00,,,0.00,944,WeatherCatV1.15B25,2013-04-20 20:04:00,
2013-04-20 13:09:00,58.7,23.0,30.02,SSE,162,0.0,4.0,25,0.00,,,0.00,946,WeatherCatV1.15B25,2013-04-20 20:09:00,
2013-04-20 13:14:00,58.9,20.1,30.02,SE,126,2.0,10.0,22,0.00,,,0.00,946,WeatherCatV1.15B25,2013-04-20 20:14:00,
2013-04-20 13:19:00,58.9,20.1,30.02,ESE,106,3.0,11.0,22,0.00,,,0.00,947,WeatherCatV1.15B25,2013-04-20 20:19:00,
2013-04-20 13:24:00,58.9,19.0,30.02,ESE,106,0.0,10.0,21,0.00,,,0.00,946,WeatherCatV1.15B25,2013-04-20 20:24:00,
2013-04-20 13:29:00,58.9,19.0,30.02,SE,137,0.0,2.0,21,0.00,,,0.00,946,WeatherCatV1.15B25,2013-04-20 20:29:00,
2013-04-20 13:34:00,59.2,19.3,30.02,SSE,161,0.0,10.0,21,0.00,,,0.00,944,WeatherCatV1.15B25,2013-04-20 20:34:00,
2013-04-20 13:39:00,59.9,18.7,30.02,SE,136,2.0,6.0,20,0.00,,,0.00,942,WeatherCatV1.15B25,2013-04-20 20:39:00,
2013-04-20 13:44:00,60.5,19.2,30.02,East,101,3.0,3.0,20,0.00,,,0.00,940,WeatherCatV1.15B25,2013-04-20 20:44:00,
2013-04-20 13:49:00,61.3,19.9,30.01,ESE,107,0.0,2.0,20,0.00,,,0.00,937,WeatherCatV1.15B25,2013-04-20 20:49:00,
2013-04-20 13:54:00,61.6,19.0,30.01,ENE,71,0.0,4.0,19,0.00,,,0.00,933,WeatherCatV1.15B25,2013-04-20 20:54:00,
2013-04-20 13:59:00,62.1,20.6,30.01,ESE,112,0.0,3.0,20,0.00,,,0.00,930,WeatherCatV1.15B25,2013-04-20 20:59:00,
2013-04-20 14:04:00,62.7,17.3,30.01,East,97,3.0,3.0,17,0.00,,,0.00,928,WeatherCatV1.15B25,2013-04-20 21:04:00,
2013-04-20 14:09:00,62.1,18.1,30.01,East,81,0.0,1.0,18,0.00,,,0.00,923,WeatherCatV1.15B25,2013-04-20 21:09:00,
2013-04-20 14:14:00,60.9,17.1,30.01,WNW,293,2.0,5.0,18,0.00,,,0.00,919,WeatherCatV1.15B25,2013-04-20 21:14:00,
2013-04-20 14:19:00,60.2,16.5,30.02,WNW,293,2.0,9.0,18,0.00,,,0.00,912,WeatherCatV1.15B25,2013-04-20 21:19:00,
2013-04-20 14:24:00,59.9,15.0,30.02,NW,312,2.0,9.0,17,0.00,,,0.00,907,WeatherCatV1.15B25,2013-04-20 21:24:00,
2013-04-20 14:29:00,59.2,14.4,30.02,WNW,293,0.0,4.0,17,0.00,,,0.00,898,WeatherCatV1.15B25,2013-04-20 21:29:00,
2013-04-20 14:34:00,58.3,5.9,30.04,WNW,288,9.0,10.0,12,0.00,,,0.00,895,WeatherCatV1.15B25,2013-04-20 21:34:00,
2013-04-20 14:39:00,57.2,8.5,30.04,West,266,3.0,3.0,14,0.00,,,0.00,884,WeatherCatV1.15B25,2013-04-20 21:39:00,
2013-04-20 14:44:00,56.5,4.5,30.04,WNW,300,4.0,4.0,12,0.00,,,0.00,875,WeatherCatV1.15B25,2013-04-20 21:44:00,
2013-04-20 14:49:00,56.0,0.2,30.06,WNW,293,1.0,4.0,10,0.00,,,0.00,868,WeatherCatV1.15B25,2013-04-20 21:49:00,
2013-04-20 14:54:00,56.3,7.7,30.06,WSW,258,0.0,1.0,14,0.00,,,0.00,860,WeatherCatV1.15B25,2013-04-20 21:54:00,
2013-04-20 14:59:00,57.0,3.0,30.06,WSW,237,2.0,4.0,11,0.00,,,0.00,851,WeatherCatV1.15B25,2013-04-20 21:59:00,
2013-04-20 15:04:00,57.8,-0.6,30.05,WSW,245,1.0,5.0,9,0.00,,,0.00,846,WeatherCatV1.15B25,2013-04-20 22:04:00,
2013-04-20 15:09:00,58.3,2.0,30.05,ENE,64,0.0,7.0,10,0.00,,,0.00,833,WeatherCatV1.15B25,2013-04-20 22:09:00,
2013-04-20 15:14:00,59.2,18.2,30.05,East,98,1.0,3.0,20,0.00,,,0.00,821,WeatherCatV1.15B25,2013-04-20 22:14:00,
2013-04-20 15:19:00,59.9,19.9,30.02,SSE,149,2.0,3.0,21,0.00,,,0.00,810,WeatherCatV1.15B25,2013-04-20 22:19:00,
2013-04-20 15:24:00,60.9,20.7,30.02,ENE,69,2.0,3.0,21,0.00,,,0.00,796,WeatherCatV1.15B25,2013-04-20 22:24:00,
2013-04-20 15:29:00,60.9,20.7,30.02,ESE,104,0.0,6.0,21,0.00,,,0.00,788,WeatherCatV1.15B25,2013-04-20 22:29:00,
2013-04-20 15:34:00,61.2,21.0,30.00,ESE,108,3.0,5.0,21,0.00,,,0.00,775,WeatherCatV1.15B25,2013-04-20 22:34:00,
2013-04-20 15:39:00,61.0,21.9,30.00,ESE,118,0.0,1.0,22,0.00,,,0.00,766,WeatherCatV1.15B25,2013-04-20 22:39:00,
2013-04-20 15:44:00,62.1,21.7,30.00,ESE,118,0.0,1.0,21,0.00,,,0.00,752,WeatherCatV1.15B25,2013-04-20 22:44:00,
2013-04-20 15:49:00,62.9,18.8,30.00,South,176,0.0,1.0,18,0.00,,,0.00,742,WeatherCatV1.15B25,2013-04-20 22:49:00,
2013-04-20 15:54:00,63.7,23.0,30.00,ESE,114,0.0,1.0,21,0.00,,,0.00,729,WeatherCatV1.15B25,2013-04-20 22:54:00,
2013-04-20 15:59:00,63.9,20.8,30.00,ENE,63,0.0,4.0,19,0.00,,,0.00,715,WeatherCatV1.15B25,2013-04-20 22:59:00,
2013-04-20 16:04:00,64.5,23.7,29.97,SE,145,0.0,0.0,21,0.00,,,0.00,703,WeatherCatV1.15B25,2013-04-20 23:04:00,
2013-04-20 16:09:00,64.7,23.9,29.97,East,83,2.0,3.0,21,0.00,,,0.00,691,WeatherCatV1.15B25,2013-04-20 23:09:00,
2013-04-20 16:14:00,64.0,24.4,29.97,East,98,0.0,5.0,22,0.00,,,0.00,677,WeatherCatV1.15B25,2013-04-20 23:14:00,
2013-04-20 16:19:00,63.7,24.1,29.97,SE,126,0.0,1.0,22,0.00,,,0.00,661,WeatherCatV1.15B25,2013-04-20 23:19:00,
2013-04-20 16:24:00,63.1,22.5,29.97,ENE,62,3.0,4.0,21,0.00,,,0.00,645,WeatherCatV1.15B25,2013-04-20 23:24:00,
2013-04-20 16:29:00,63.4,23.9,29.97,East,79,0.0,3.0,22,0.00,,,0.00,629,WeatherCatV1.15B25,2013-04-20 23:29:00,
2013-04-20 16:34:00,63.4,25.0,29.98,East,86,0.0,1.0,23,0.00,,,0.00,619,WeatherCatV1.15B25,2013-04-20 23:34:00,
2013-04-20 16:39:00,64.0,23.3,29.98,East,87,0.0,1.0,21,0.00,,,0.00,603,WeatherCatV1.15B25,2013-04-20 23:39:00,
2013-04-20 16:44:00,63.9,23.2,29.98,North,2,4.0,4.0,21,0.00,,,0.00,585,WeatherCatV1.15B25,2013-04-20 23:44:00,
2013-04-20 16:49:00,63.2,20.3,29.97,North,2,0.0,0.0,19,0.00,,,0.00,570,WeatherCatV1.15B25,2013-04-20 23:49:00,
2013-04-20 16:54:00,63.4,22.8,29.97,SSE,162,0.0,5.0,21,0.00,,,0.00,554,WeatherCatV1.15B25,2013-04-20 23:54:00,
2013-04-20 16:59:00,62.9,18.8,29.97,East,91,0.0,4.0,18,0.00,,,0.00,536,WeatherCatV1.15B25,2013-04-20 23:59:00,
2013-04-20 17:04:00,63.1,21.4,29.98,ENE,62,0.0,1.0,20,0.00,,,0.00,520,WeatherCatV1.15B25,2013-04-21 00:04:00,
2013-04-20 17:09:00,63.1,21.4,29.98,ENE,63,0.0,1.0,20,0.00,,,0.00,501,WeatherCatV1.15B25,2013-04-21 00:09:00,
2013-04-20 17:14:00,63.4,21.6,29.98,ENE,62,0.0,0.0,20,0.00,,,0.00,489,WeatherCatV1.15B25,2013-04-21 00:14:00,
2013-04-20 17:19:00,63.2,20.3,29.98,ENE,62,0.0,1.0,19,0.00,,,0.00,469,WeatherCatV1.15B25,2013-04-21 00:19:00,
2013-04-20 17:24:00,62.7,21.1,29.98,ENE,62,0.0,1.0,20,0.00,,,0.00,454,WeatherCatV1.15B25,2013-04-21 00:24:00,
2013-04-20 17:29:00,62.1,13.9,29.98,North,10,0.0,3.0,15,0.00,,,0.00,432,WeatherCatV1.15B25,2013-04-21 00:29:00,
2013-04-20 17:34:00,61.3,14.7,30.00,NNW,329,2.0,4.0,16,0.00,,,0.00,415,WeatherCatV1.15B25,2013-04-21 00:34:00,
2013-04-20 17:39:00,61.0,15.9,30.00,NW,314,4.0,5.0,17,0.00,,,0.00,396,WeatherCatV1.15B25,2013-04-21 00:39:00,
2013-04-20 17:44:00,60.2,16.5,30.00,WNW,301,5.0,6.0,18,0.00,,,0.00,381,WeatherCatV1.15B25,2013-04-21 00:44:00,
2013-04-20 17:49:00,59.8,17.5,30.01,West,278,3.0,3.0,19,0.00,,,0.00,364,WeatherCatV1.15B25,2013-04-21 00:49:00,
2013-04-20 17:54:00,59.5,17.2,30.01,WNW,283,7.0,7.0,19,0.00,,,0.00,346,WeatherCatV1.15B25,2013-04-21 00:54:00,
2013-04-20 17:59:00,59.0,15.6,30.01,WNW,283,0.0,4.0,18,0.00,,,0.00,325,WeatherCatV1.15B25,2013-04-21 00:59:00,
2013-04-20 18:04:00,58.9,14.2,30.02,WNW,298,1.0,4.0,17,0.00,,,0.00,308,WeatherCatV1.15B25,2013-04-21 01:04:00,
2013-04-20 18:09:00,58.4,13.8,30.02,WNW,299,2.0,5.0,17,0.00,,,0.00,288,WeatherCatV1.15B25,2013-04-21 01:09:00,
2013-04-20 18:14:00,58.1,14.8,30.02,NW,306,3.0,5.0,18,0.00,,,0.00,269,WeatherCatV1.15B25,2013-04-21 01:14:00,
2013-04-20 18:19:00,57.8,15.8,30.02,West,272,4.0,6.0,19,0.00,,,0.00,253,WeatherCatV1.15B25,2013-04-21 01:19:00,
2013-04-20 18:24:00,57.2,16.5,30.02,WNW,293,4.0,9.0,20,0.00,,,0.00,234,WeatherCatV1.15B25,2013-04-21 01:24:00,
2013-04-20 18:29:00,57.2,17.6,30.02,WNW,288,4.0,5.0,21,0.00,,,0.00,216,WeatherCatV1.15B25,2013-04-21 01:29:00,
2013-04-20 18:34:00,57.0,17.5,30.03,NNW,328,5.0,6.0,21,0.00,,,0.00,197,WeatherCatV1.15B25,2013-04-21 01:34:00,
2013-04-20 18:39:00,56.9,19.5,30.03,WNW,293,4.0,5.0,23,0.00,,,0.00,179,WeatherCatV1.15B25,2013-04-21 01:39:00,
2013-04-20 18:44:00,56.6,18.2,30.03,WNW,299,5.0,6.0,22,0.00,,,0.00,163,WeatherCatV1.15B25,2013-04-21 01:44:00,
2013-04-20 18:49:00,56.2,17.9,30.03,NW,312,9.0,11.0,22,0.00,,,0.00,144,WeatherCatV1.15B25,2013-04-21 01:49:00,
2013-04-20 18:54:00,55.9,18.7,30.03,West,277,3.0,6.0,23,0.00,,,0.00,130,WeatherCatV1.15B25,2013-04-21 01:54:00,
2013-04-20 18:59:00,55.4,19.2,30.03,NW,306,4.0,9.0,24,0.00,,,0.00,113,WeatherCatV1.15B25,2013-04-21 01:59:00,
2013-04-20 19:04:00,55.0,18.9,30.05,West,270,5.0,7.0,24,0.00,,,0.00,97,WeatherCatV1.15B25,2013-04-21 02:04:00,
2013-04-20 19:09:00,54.8,19.7,30.05,NW,309,1.0,6.0,25,0.00,,,0.00,81,WeatherCatV1.15B25,2013-04-21 02:09:00,
2013-04-20 19:14:00,54.5,19.4,30.05,West,263,5.0,7.0,25,0.00,,,0.00,67,WeatherCatV1.15B25,2013-04-21 02:14:00,
2013-04-20 19:19:00,54.2,20.1,30.02,WNW,293,5.0,6.0,26,0.00,,,0.00,54,WeatherCatV1.15B25,2013-04-21 02:19:00,
2013-04-20 19:24:00,53.8,21.5,30.02,WNW,298,4.0,10.0,28,0.00,,,0.00,40,WeatherCatV1.15B25,2013-04-21 02:24:00,
2013-04-20 19:29:00,53.3,23.4,30.02,WNW,297,9.0,12.0,31,0.00,,,0.00,32,WeatherCatV1.15B25,2013-04-21 02:29:00,
2013-04-20 19:34:00,52.8,25.2,30.04,NW,305,5.0,10.0,34,0.00,,,0.00,19,WeatherCatV1.15B25,2013-04-21 02:34:00,
2013-04-20 19:39:00,52.5,26.3,30.04,WNW,288,4.0,7.0,36,0.00,,,0.00,11,WeatherCatV1.15B25,2013-04-21 02:39:00,
2013-04-20 19:44:00,52.0,27.8,30.04,WNW,297,6.0,9.0,39,0.00,,,0.00,5,WeatherCatV1.15B25,2013-04-21 02:44:00,
2013-04-20 19:49:00,51.6,28.1,30.04,NW,312,3.0,7.0,40,0.00,,,0.00,0,WeatherCatV1.15B25,2013-04-21 02:49:00,
2013-04-20 19:54:00,51.1,30.0,30.04,WNW,293,2.0,6.0,44,0.00,,,0.00,0,WeatherCatV1.15B25,2013-04-21 02:54:00,
2013-04-20 19:59:00,50.8,28.0,30.04,WNW,300,0.0,0.0,41,0.00,,,0.00,0,WeatherCatV1.15B25,2013-04-21 02:59:00,
2013-04-20 20:04:00,50.4,27.0,30.06,WSW,257,1.0,4.0,40,0.00,,,0.00,0,WeatherCatV1.15B25,2013-04-21 03:04:00,
2013-04-20 20:09:00,49.9,28.3,30.06,WSW,251,0.0,0.0,43,0.00,,,0.00,0,WeatherCatV1.15B25,2013-04-21 03:09:00,
2013-04-20 20:14:00,49.5,30.1,30.06,WSW,251,0.0,0.0,47,0.00,,,0.00,0,WeatherCatV1.15B25,2013-04-21 03:14:00,
2013-04-20 20:19:00,49.2,29.8,30.02,WSW,251,0.0,0.0,47,0.00,,,0.00,0,WeatherCatV1.15B25,2013-04-21 03:19:00,
2013-04-20 20:24:00,48.9,30.6,30.02,NNW,334,1.0,4.0,49,0.00,,,0.00,0,WeatherCatV1.15B25,2013-04-21 03:24:00,
2013-04-20 20:29:00,48.5,30.7,30.02,NW,326,4.0,4.0,50,0.00,,,0.00,0,WeatherCatV1.15B25,2013-04-21 03:29:00,
2013-04-20 20:34:00,48.2,30.9,30.04,NNW,339,0.0,2.0,51,0.00,,,0.00,0,WeatherCatV1.15B25,2013-04-21 03:34:00,
2013-04-20 20:39:00,48.0,31.2,30.04,NNW,339,0.0,3.0,52,0.00,,,0.00,0,WeatherCatV1.15B25,2013-04-21 03:39:00,
2013-04-20 20:44:00,47.9,31.1,30.04,NNW,341,1.0,4.0,52,0.00,,,0.00,0,WeatherCatV1.15B25,2013-04-21 03:44:00,
2013-04-20 20:49:00,47.7,30.9,30.04,NNW,342,0.0,0.0,52,0.00,,,0.00,0,WeatherCatV1.15B25,2013-04-21 03:49:00,
2013-04-20 20:54:00,47.6,30.9,30.04,NNW,341,0.0,3.0,52,0.00,,,0.00,0,WeatherCatV1.15B25,2013-04-21 03:54:00,
2013-04-20 20:59:00,47.4,31.1,30.04,NNW,342,2.0,4.0,53,0.00,,,0.00,0,WeatherCatV1.15B25,2013-04-21 03:59:00,
2013-04-20 21:01:00,47.4,31.1,30.07,NNW,342,0.0,3.0,53,0.00,,,0.00,0,WeatherCatV1.15B25,2013-04-21 04:01:00,
2013-04-20 21:02:00,47.4,31.1,30.07,NNW,342,0.0,0.0,53,0.00,,,0.00,0,WeatherCatV1.15B25,2013-04-21 04:02:00,
2013-04-20 21:04:00,47.4,30.7,30.07,NNW,342,0.0,0.0,52,0.00,,,0.00,0,WeatherCatV1.15B25,2013-04-21 04:04:00,
2013-04-20 21:06:00,47.4,30.7,30.07,NNW,343,1.0,1.0,52,0.00,,,0.00,0,WeatherCatV1.15B25,2013-04-21 04:06:00,
2013-04-20 21:08:00,47.4,29.7,30.07,North,349,0.0,2.0,50,0.00,,,0.00,0,WeatherCatV1.15B25,2013-04-21 04:08:00,
2013-04-20 21:13:00,47.4,29.7,30.07,East,101,1.0,5.0,50,0.00,,,0.00,0,WeatherCatV1.15B25,2013-04-21 04:13:00,
2013-04-20 21:18:00,47.3,27.6,30.05,SE,136,0.0,7.0,46,0.00,,,0.00,0,WeatherCatV1.15B25,2013-04-21 04:18:00,
2013-04-20 21:23:00,47.1,24.6,30.05,SE,139,3.0,12.0,41,0.00,,,0.00,0,WeatherCatV1.15B25,2013-04-21 04:23:00,
2013-04-20 21:28:00,47.1,24.0,30.05,SSE,148,6.0,6.0,40,0.00,,,0.00,0,WeatherCatV1.15B25,2013-04-21 04:28:00,
2013-04-20 21:33:00,47.1,22.2,30.05,SE,145,6.0,10.0,37,0.00,,,0.00,0,WeatherCatV1.15B25,2013-04-21 04:33:00,
2013-04-20 21:38:00,47.0,22.1,30.05,SE,137,5.0,11.0,37,0.00,,,0.00,0,WeatherCatV1.15B25,2013-04-21 04:38:00,
2013-04-20 21:43:00,47.0,20.8,30.05,SE,137,5.0,9.0,35,0.00,,,0.00,0,WeatherCatV1.15B25,2013-04-21 04:43:00,
2013-04-20 21:48:00,46.8,20.6,30.06,SSE,152,2.0,10.0,35,0.00,,,0.00,0,WeatherCatV1.15B25,2013-04-21 04:48:00,
2013-04-20 21:53:00,46.5,19.7,30.06,SSE,149,5.0,9.0,34,0.00,,,0.00,0,WeatherCatV1.15B25,2013-04-21 04:53:00,
2013-04-20 21:58:00,46.4,19.6,30.06,SSE,148,6.0,7.0,34,0.00,,,0.00,0,WeatherCatV1.15B25,2013-04-21 04:58:00,
2013-04-20 22:03:00,46.4,18.9,30.07,SE,145,4.0,6.0,33,0.00,,,0.00,0,WeatherCatV1.15B25,2013-04-21 05:03:00,
2013-04-20 22:08:00,46.4,18.9,30.07,SE,141,5.0,6.0,33,0.00,,,0.00,0,WeatherCatV1.15B25,2013-04-21 05:08:00,
2013-04-20 22:13:00,46.2,20.1,30.07,SE,124,3.0,4.0,35,0.00,,,0.00,0,WeatherCatV1.15B25,2013-04-21 05:13:00,
2013-04-20 22:18:00,46.2,20.1,30.03,SSE,149,2.0,5.0,35,0.00,,,0.00,0,WeatherCatV1.15B25,2013-04-21 05:18:00,
2013-04-20 22:23:00,46.1,20.0,30.03,SE,135,0.0,4.0,35,0.00,,,0.00,0,WeatherCatV1.15B25,2013-04-21 05:23:00,
2013-04-20 22:28:00,46.0,19.9,30.03,SE,135,0.0,0.0,35,0.00,,,0.00,0,WeatherCatV1.15B25,2013-04-21 05:28:00,
2013-04-20 22:33:00,45.8,19.7,30.03,SE,135,0.0,2.0,35,0.00,,,0.00,0,WeatherCatV1.15B25,2013-04-21 05:33:00,
2013-04-20 22:38:00,45.5,20.1,30.03,SE,141,3.0,3.0,36,0.00,,,0.00,0,WeatherCatV1.15B25,2013-04-21 05:38:00,
2013-04-20 22:43:00,45.4,19.4,30.03,SE,141,5.0,7.0,35,0.00,,,0.00,0,WeatherCatV1.15B25,2013-04-21 05:43:00,
2013-04-20 22:48:00,45.2,19.2,30.05,SE,125,2.0,3.0,35,0.00,,,0.00,0,WeatherCatV1.15B25,2013-04-21 05:48:00,
2013-04-20 22:53:00,45.2,19.2,30.05,SE,139,5.0,5.0,35,0.00,,,0.00,0,WeatherCatV1.15B25,2013-04-21 05:53:00,
2013-04-20 22:58:00,45.1,19.1,30.05,SE,139,4.0,4.0,35,0.00,,,0.00,0,WeatherCatV1.15B25,2013-04-21 05:58:00,
2013-04-20 23:03:00,45.2,19.2,30.04,SSE,147,3.0,4.0,35,0.00,,,0.00,0,WeatherCatV1.15B25,2013-04-21 06:03:00,
2013-04-20 23:08:00,45.2,18.5,30.04,SSE,147,4.0,6.0,34,0.00,,,0.00,0,WeatherCatV1.15B25,2013-04-21 06:08:00,
2013-04-20 23:13:00,45.1,17.7,30.04,SSE,151,5.0,5.0,33,0.00,,,0.00,0,WeatherCatV1.15B25,2013-04-21 06:13:00,
2013-04-20 23:18:00,45.1,17.0,30.01,SE,133,0.0,10.0,32,0.00,,,0.00,0,WeatherCatV1.15B25,2013-04-21 06:18:00,
2013-04-20 23:23:00,44.9,17.6,30.01,SSE,161,0.0,3.0,33,0.00,,,0.00,0,WeatherCatV1.15B25,2013-04-21 06:23:00,
2013-04-20 23:28:00,44.9,17.6,30.01,SSE,154,4.0,4.0,33,0.00,,,0.00,0,WeatherCatV1.15B25,2013-04-21 06:28:00,
2013-04-20 23:33:00,44.8,16.8,30.01,SSE,149,4.0,5.0,32,0.00,,,0.00,0,WeatherCatV1.15B25,2013-04-21 06:33:00,
2013-04-20 23:38:00,44.8,16.8,30.01,SSE,159,5.0,10.0,32,0.00,,,0.00,0,WeatherCatV1.15B25,2013-04-21 06:38:00,
2013-04-20 23:43:00,44.8,16.8,30.01,SSE,153,3.0,6.0,32,0.00,,,0.00,0,WeatherCatV1.15B25,2013-04-21 06:43:00,
2013-04-20 23:48:00,44.6,16.6,30.01,SE,145,1.0,4.0,32,0.00,,,0.00,0,WeatherCatV1.15B25,2013-04-21 06:48:00,
2013-04-20 23:53:00,44.6,16.6,30.01,SSE,147,4.0,5.0,32,0.00,,,0.00,0,WeatherCatV1.15B25,2013-04-21 06:53:00,
2013-04-20 23:58:00,44.6,15.9,30.01,SSE,153,5.0,7.0,31,0.00,,,0.00,0,WeatherCatV1.15B25,2013-04-21 06:58:00,